sat.trackr.live / text

‹ back to catalog

STARLINK-37004

NORAD 68089 · 2026-042W

PAYLOAD ACTIVE UNKNOWN

§ Identity

Operator
Country
US
Launch date
2026-03-04
Launch site
AFETR
Launch vehicle
Mass (kg)
RCS (m²)

Purposes: comms

External: N2YO · Heavens-Above · Gunter

§ Orbital elements

Epoch: 2026-05-25T01:43:42.744864Z

Period
93.85 min
Inclination
53.1576°
Eccentricity
0.0001079
Mean motion
15.34398679 rev/d
Perigee alt
462.0 km
Apogee alt
463.4 km
Semi-major
6,840.8 km
B*
2.2794e-4
RAAN
183.6567°
Arg perigee
93.3823°
Mean anomaly
266.7302°
Rev number
1,400

§ Raw data

STARLINK-370041 68089U 26042W   26145.07202251  .00007332  00000+0  22794-3 0  99932 68089  53.1576 183.6567 0001079  93.3823 266.7302 15.34398679 14007

JSON: /api/v1/satellites/68089 · /tle

For live sub-satellite position, see the globe view (requires WebGL).

§ Visibility from observer

Set your observer location to see the next 7 days of passes ≥ 10°. The values pass through the URL so the page stays shareable.

No JS? Fill the form by hand. The geolocation button needs JavaScript.